カタログに戻る

STARLINK-11193

運用中通信VLEO
NORAD 60195·PAYLOAD·🇺🇸 United States

打ち上げ Jul 3, 2024 から Cape Canaveral Space Force Station

Loading…

次のパス (今後24時間)

TLE

最新Source: CelesTrak SupGP

元期: Sep 14, 2026, 20:46 UTC

1 60195C 24124N   26257.86576389 -.00067847  00000+0 -55887-3 0  2574
2 60195  53.1561 308.6559 0001120  97.4253  12.6240 15.69743508    18

AllMySatでSTARLINK-11193をリアルタイム追跡

Download on the App Store